Вернуться в каталог

BREEZE-M R/B

АктивенHEO
NORAD 41311·ROCKET BODY·🇷🇺 Russia

Запущен Jan 29, 2016 с Baikonur Cosmodrome

Loading…

Ближайшие Пролёты (ближайшие 24 часа)

TLE

СвежийSource: Space-Track

Эпоха: Sep 14, 2026, 04:51 UTC

1 41311U 16005B   26257.20266432 -.00000079  00000-0  00000-0 0  9996
2 41311  12.6839  78.5508 5961341   8.5801 358.2781  2.17160114 84273

Отслеживайте BREEZE-M R/B в реальном времени с AllMySat

Download on the App Store